www.pogodaiklimat.ru

Погода и климат >> Архив погоды >> Гана >> Тема


ПОГОДА в Тема

  • Прогноз погоды в Тема
  • Монитор погоды в Тема

АРХИВ ПОГОДЫ в Тема

Время (UTC), дата Ветер
(напр.,м/с)
 
Видим.   Явления Облачность Т
(С)
Тd
(С)
f
(%)
Тe
(С)
Тes
(С)
Комфортность P
(гПа)
Po
(гПа)
Тmin
(С)
Tmax
(С)
R
(мм)
R24
(мм)
S
(см)
09 12.03 ЮЗ 2 14 км 4/4 480 м
[Cu Sc]
+31.0 +25.8 74 +46 +53 опасность
перегрева
1010.6 1008.6
12 12.03 ЮЗ 5 14 км 3/3 500 м
[Cu med, cong]
+32.1 +25.9 70 +48 +55 опасность
перегрева
1010.2 1008.2
15 12.03 ЮЗ 6 14 км ясно +31.5 +26.3 74 +48 +52 опасность
перегрева
1007.8 1005.8
18 12.03 ЮЗ 6 14 км 4/4 330 м
[Cu Sc]
+30.3 +26.7 81 +47 +47 опасность
перегрева
1008.3 1006.3 +33.3
21 12.03 ЮЗ 4 18 км 8/5 330 м
[Sc Cs]
+29.8 +26.6 83 +46 +46 опасность
перегрева
1010.2 1008.2
00 13.03 ЮЗ 3 12 км 6/4 330 м
[Sc Ci sp]
+29.4 +26.2 83 +45 +45 опасность
перегрева
1010.4 1008.3
03 13.03 ЮЗ 3 10 км 6/6 300 м
[Sc]
+29.0 +25.7 82 +43 +43 опасность
перегрева
1007.6 1005.6
06 13.03 ЮЗ 2 10 км 6/6 300 м
[Sc]
+29.0 +25.5 81 +43 +43 опасность
перегрева
1008.6 1006.5 +28.8
21 13.03 ЮЗ 4 12 км 4/3 360 м
[Sc Ac trans]
+29.5 +26.1 82 +45 +45 опасность
перегрева
1009.1 1007.1
03 14.03 З 2 12 км 1/1 330 м
[Sc]
+29.0 +26.4 86 +44 +44 опасность
перегрева
1007.2 1005.2
06 14.03 З 3 12 км 3/1 450 м
[Cu med, cong Ci sp]
+28.1 +25.9 88 +42 +42 опасность
перегрева
1007.6 1005.5 +28.1
09 14.03 ЮЗ 3 15 км 5/3 480 м
[Cu med, cong Ci sp]
+30.7 +25.8 75 +46 +52 опасность
перегрева
1017.3 1015.2
12 14.03 ЮЗ 3 18 км 5/3 500 м
[Cu med, cong Ci sp]
+32.5 +26.3 70 +49 +61 опасность
перегрева
1008.3 1006.3
15 14.03 ЮЗ 5 18 км 9/9 300 м
[Cu med, cong Ac As Cs]
+31.7 +26.5 74 +48 +49 опасность
перегрева
1006.3 1004.3
09 15.03 ЮЗ 3 10 км {гроза} 9/0
[Ac trans]
+28.5 +25.1 82 +41 +46 опасность
перегрева
1009.1 1007.0
12 15.03 Ю 2 10 км {гроза} 8/0
[Ac trans Ci sp]
+30.7 +24.8 71 +44 +57 опасность
перегрева
1008.8 1006.8
15 15.03 З 4 10 км 8/0
[Ac trans Cs]
+30.8 +25.4 73 +45 +50 опасность
перегрева
1007.1 1005.1
21 15.03 ЮЗ 3 10 км 5/0
[Ci sp]
+28.9 +24.9 79 +41 +41 опасность
перегрева
1010.3 1008.2
00 16.03 ЮЗ 3 10 км 8/0
[Cs]
+28.5 +25.1 82 +41 +41 опасность
перегрева
1010.3 1008.2
06 16.03 З 3 14 км 6/0
[Ac As Cs]
+27.3 +27.1 99 +43 +43 опасность
перегрева
1008.5 1006.4
09 16.03 ЮЗ 2 10 км 6/3 480 м
[Cu med, cong Ac trans Ci sp]
+30.2 +25.7 77 +45 +51 опасность
перегрева
1010.9 1008.9
15 16.03 ЮЗ 5 10 км 5/1 500 м
[Cu med, cong Ci sp]
+31.7 +26.0 72 +47 +53 опасность
перегрева
1008.2 1006.2
00 18.03 СЗ 1 10 км 6/0
[Ac trans]
+28.0 +24.6 82 +40 +40 очень
душно
1009.6 1007.5
03 18.03 СЗ 1 10 км 8/0
[Ac trans Ci sp]
+27.0 +24.3 85 +38 +38 очень
душно
1007.5 1005.4
06 18.03 0 н/о +26.7 1008.2 0.1
12 18.03 ЮЗ 3 18 км 6/3 480 м
[Cu med, cong Ci sp]
+31.1 +25.2 71 +45 +56 опасность
перегрева
1009.8 1007.8
15 18.03 ЮЗ 5 18 км 8/3 480 м
[Cu med, cong Ac trans Ci sp]
+30.6 +25.7 75 +45 +48 опасность
перегрева
1007.5 1005.5
21 18.03 ЮЗ 3 11 км ясно +28.9 +25.8 83 +43 +43 опасность
перегрева
1009.1 1007.0
00 19.03 ЮЗ 3 11 км 4/4 330 м
[Sc]
+29.0 +25.6 82 +43 +43 опасность
перегрева
1009.5 1007.4
03 19.03 ЮЗ 3 10 км 5/5 300 м
[Sc]
+28.6 +25.8 85 +43 +43 опасность
перегрева
1007.5 1005.4

 

Местоположение метеостанции Тема (Гана): широта 5.62 долгота 0.00 высота над уровнем моря 18 м.

В архиве по умолчанию представлена погода в Тема за последнюю неделю. Архивные данные за месяц целиком и за предыдущие месяцы, начиная с января 2011 года, Вы можете получить, выбрав интересующий диапазон дат из раскрывающегося списка и нажав кнопку "Ввод!".


*Определитесь, кто Вы:
робот инопланетянин человек

Внимание! Время в таблицах - всемирное. Для получения местного времени необходимо прибавить поправку, которая равна 1 ч.

Смотрите также архив погоды в соседних городах и на ближайших метеорологических станциях:

Погода в Аккра (Гана) (19 км)
Погода в Акюсе (Гана) (55 км)
Погода в Кофоридуа (Гана) (58 км)
Погода в Ада (Гана) (72 км)
Погода в Акатзи (Гана) (105 км)
Погода в Аким Ода (Гана) (114 км)
Погода в Хо (Гана) (121 км)
Погода в Солтпонде (Гана) (127 км)
Погода в Абетифи (Гана) (143 км)
Погода в Ломе (Того) (151 км)

Пояснения к столбцам:

Ветер - указаны скорость ветра в м/с - средняя за 10 мин, порывы в срок и между сроками (в фигурных скобках) и направление, откуда дует ветер: С - северный, СВ - северо-восточный, В - восточный, ЮВ - юго-восточный, Ю - южный, ЮЗ - юго-западный, З - западный, СЗ - северо-западный.
Видимость - горизонтальная дальность видимости в метрах или километрах. При видимости от 1 до 10 км при отсутствии осадков обычно наблюдается дымка, при ухудшении видимости до 1 км и менее - туман. В сухую погоду видимость может ухудшаться дымом, пылью или мглою.
Явления - указаны атмосферные явления, наблюдавшиеся в срок или в последний час перед сроком; фигурными скобками обозначены явления, наблюдавшиеся между сроками (за 1-3 часа до срока); квадратными скобками обозначены град или гололедные отложения с указанием их диаметра в мм.
Облачность - указаны через наклонную черту общая и нижняя облачность в баллах и высота нижней границы облаков в метрах; квадратными скобками обозначены формы облаков: Ci - перистые, Cs - перисто-слоистые, Cc - перисто-кучевые, Ac - высококучевые, As - высокослоистые, Sc - слоисто-кучевые, Ns - слоисто-дождевые, Cu - кучевые, Cb - кучево-дождевые. Подробнее классификацию облаков см. в Атласе облаков (PDF).
T - Температура воздуха - температура, измеренная на высоте 2 м над землей.
Td - Температура точки росы - температура, при понижении до которой содержащийся в воздухе водяной пар достигнет насыщения.
f - Относительная влажность воздуха - влажноcть воздуха, измеренная на высоте 2 м над землей.
Te - Эффективная температура - температура, которую ощущает одетый по сезону человек в тени. Характеристика душности погоды. При расчете учитывается влияние влажности воздуха и скорости ветра на теплоощущения человека.
Tes - Эффективная температура на солнце - температура, которую ощущает человек, с поправкой на солнечный нагрев. Характеристика знойности погоды. Зависит от высоты солнца над горизонтом, облачности и скорости ветра. Ночью, в пасмурную погоду, а также при ветре 12 м/с и более поправка равна нулю.
P - Атмосферное давление - приведенное к уровню моря атмосферное давление.
Po - Атмосферное давление - измеренное на уровне метеостанции атмосферное давление.
Tmin - Минимальная температура - минимум температуры воздуха на высоте 2 м над землей.
Tmax - Максимальная температура - максимум температуры воздуха на высоте 2 м над землей.
R - Количество осадков - Количество выпавших осадков за период времени, мм. При наведении курсора мыши на число - период времени, за который выпало указанное количество осадков.
R24 - Количество осадков - Количество выпавших осадков за 24 часа, мм.
S - Снежный покров - Высота снежного покрова, см. При наведении курсора мыши на число - состояние снежного покрова и степень покрытия местности в баллах.